| time (UTC) | temp F | wind direction | speed knots | gust knots | rain 1hr in | rain 24hr in | rain mn in | humidity % | barometer mb |
| 20260504002656 | 78 | 54 | 3.5 | 5.2 | 0.00 | 0.00 | 0.00 | 38 | 1009.6 |
| 20260504002157 | 77 | 54 | 3.5 | 4.3 | 0.00 | 0.00 | 0.00 | 40 | 1009.6 |
| 20260504001656 | 78 | 56 | 3.5 | 5.2 | 0.00 | 0.00 | 0.00 | 36 | 1009.6 |
| 20260504001157 | 77 | 52 | 3.5 | 5.2 | 0.00 | 0.00 | 0.00 | 39 | 1009.6 |
| 20260504000927 | 78 | 56 | 3.5 | 4.3 | 0.00 | 0.00 | 0.00 | 39 | 1009.7 |
| 20260504000156 | 78 | 54 | 3.5 | 4.3 | 0.00 | 0.00 | 0.00 | 39 | 1009.7 |
| 20260503235657 | 77 | 55 | 3.5 | 4.3 | 0.00 | 0.00 | 0.00 | 39 | 1009.8 |
| 20260503235157 | 77 | 33 | 2.6 | 4.3 | 0.00 | 0.00 | 0.00 | 40 | 1009.8 |
| 20260503234917 | 77 | 39 | 3.5 | 5.2 | 0.00 | 0.00 | 0.00 | 39 | 1009.8 |
| 20260503234157 | 77 | 37 | 3.5 | 6.1 | 0.00 | 0.00 | 0.00 | 39 | 1009.8 |
| 20260503233656 | 77 | 32 | 3.5 | 6.1 | 0.00 | 0.00 | 0.00 | 39 | 1009.9 |
| 20260503233157 | 77 | 35 | 3.5 | 6.1 | 0.00 | 0.00 | 0.00 | 40 | 1010.0 |
| 20260503232657 | 77 | 41 | 4.3 | 6.1 | 0.00 | 0.00 | 0.00 | 40 | 1010.1 |
| 20260503232155 | 77 | 39 | 3.5 | 6.1 | 0.00 | 0.00 | 0.00 | 41 | 1010.2 |
| 20260503231654 | 77 | 43 | 3.5 | 6.1 | 0.00 | 0.00 | 0.00 | 43 | 1010.2 |
| 20260503231155 | 77 | 38 | 3.5 | 6.1 | 0.00 | 0.00 | 0.00 | 42 | 1010.3 |
| 20260503230657 | 77 | 45 | 4.3 | 7.0 | 0.00 | 0.00 | 0.00 | 40 | 1010.3 |
| 20260503230416 | 77 | 54 | 4.3 | 7.0 | 0.00 | 0.00 | 0.00 | 39 | 1010.4 |
| 20260503225653 | 77 | 52 | 3.5 | 6.1 | 0.00 | 0.00 | 0.00 | 40 | 1010.5 |
| 20260503225153 | 77 | 37 | 3.5 | 6.1 | 0.00 | 0.00 | 0.00 | 39 | 1010.5 |
| 20260503225135 | 77 | 30 | 3.5 | 6.1 | 0.00 | 0.00 | 0.00 | 39 | 1010.6 |
| 20260503224412 | 77 | 39 | 4.3 | 7.0 | 0.00 | 0.00 | 0.00 | 40 | 1010.7 |
| 20260503224140 | 77 | 31 | 3.5 | 7.0 | 0.00 | 0.00 | 0.00 | 39 | 1010.7 |
| 20260503223412 | 77 | 60 | 3.5 | 6.1 | 0.00 | 0.00 | 0.00 | 40 | 1010.7 |
| 20260503222913 | 77 | 48 | 4.3 | 6.1 | 0.00 | 0.00 | 0.00 | 38 | 1010.8 |
| 20260503222154 | 78 | 32 | 4.3 | 7.8 | 0.00 | 0.00 | 0.00 | 38 | 1010.9 |
| 20260503221653 | 78 | 54 | 5.2 | 7.8 | 0.00 | 0.00 | 0.00 | 36 | 1011.0 |
| 20260503221152 | 78 | 54 | 5.2 | 7.8 | 0.00 | 0.00 | 0.00 | 36 | 1011.0 |
| 20260503220653 | 78 | 55 | 4.3 | 7.0 | 0.00 | 0.00 | 0.00 | 38 | 1011.0 |
| 20260503220154 | 78 | 54 | 3.5 | 6.1 | 0.00 | 0.00 | 0.00 | 37 | 1011.2 |
| 20260503215655 | 78 | 45 | 3.5 | 5.2 | 0.00 | 0.00 | 0.00 | 36 | 1011.3 |
| 20260503215154 | 78 | 53 | 2.6 | 5.2 | 0.00 | 0.00 | 0.00 | 37 | 1011.3 |
| 20260503214652 | 78 | 55 | 2.6 | 4.3 | 0.00 | 0.00 | 0.00 | 37 | 1011.3 |
| 20260503214153 | 78 | 34 | 3.5 | 7.8 | 0.00 | 0.00 | 0.00 | 41 | 1011.4 |
| 20260503214134 | 77 | 54 | 3.5 | 7.8 | 0.00 | 0.00 | 0.00 | 40 | 1011.4 |
| 20260503213412 | 76 | 62 | 1.7 | 6.1 | 0.00 | 0.00 | 0.00 | 41 | 1011.5 |
| 20260503212652 | 75 | 62 | 0.9 | 4.3 | 0.00 | 0.00 | 0.00 | 47 | 1011.6 |
| 20260503212157 | 76 | 100 | 0.0 | 2.6 | 0.00 | 0.00 | 0.00 | 47 | 1011.7 |
| 20260503212153 | 75 | 86 | 0.9 | 2.6 | 0.00 | 0.00 | 0.00 | 48 | 1011.7 |
| 20260503211411 | 77 | 106 | 0.0 | 1.7 | 0.00 | 0.00 | 0.00 | 46 | 1011.7 |
| 20260503210653 | 77 | 101 | 0.0 | 1.7 | 0.00 | 0.00 | 0.00 | 48 | 1011.8 |
| 20260503210152 | 76 | 96 | 0.0 | 1.7 | 0.00 | 0.00 | 0.00 | 50 | 1011.8 |
| 20260503205653 | 76 | 215 | 0.0 | 1.7 | 0.00 | 0.00 | 0.00 | 46 | 1011.9 |
| 20260503205152 | 75 | 92 | 0.0 | 1.7 | 0.00 | 0.00 | 0.00 | 46 | 1012.0 |
| 20260503204652 | 75 | 187 | 0.0 | 1.7 | 0.00 | 0.00 | 0.00 | 48 | 1012.0 |
| 20260503204153 | 75 | 108 | 0.0 | 1.7 | 0.00 | 0.00 | 0.00 | 48 | 1012.1 |
| 20260503203653 | 75 | 141 | 0.0 | 0.9 | 0.00 | 0.00 | 0.00 | 45 | 1012.2 |
| 20260503203151 | 75 | 143 | 0.0 | 0.9 | 0.00 | 0.00 | 0.00 | 52 | 1012.2 |
| 20260503202651 | 75 | 147 | 0.0 | 0.9 | 0.00 | 0.00 | 0.00 | 48 | 1012.3 |
| 20260503202151 | 74 | 145 | 0.0 | 1.7 | 0.00 | 0.00 | 0.00 | 49 | 1012.3 |
| 20260503201651 | 74 | 145 | 0.0 | 1.7 | 0.00 | 0.00 | 0.00 | 48 | 1012.4 |
| 20260503201150 | 74 | 98 | 0.0 | 0.9 | 0.00 | 0.00 | 0.00 | 52 | 1012.5 |
| 20260503200651 | 73 | 97 | 0.0 | 0.0 | 0.00 | 0.00 | 0.00 | 53 | 1012.5 |
| 20260503200151 | 73 | 97 | 0.0 | 0.0 | 0.00 | 0.00 | 0.00 | 53 | 1012.6 |
| 20260503195650 | 73 | 97 | 0.0 | 0.9 | 0.00 | 0.00 | 0.00 | 54 | 1012.7 |
| 20260503195151 | 73 | 98 | 0.0 | 0.9 | 0.00 | 0.00 | 0.00 | 52 | 1012.7 |
| 20260503194914 | 74 | 96 | 0.0 | 0.9 | 0.00 | 0.00 | 0.00 | 51 | 1012.8 |
| 20260503194151 | 74 | 97 | 0.0 | 0.0 | 0.00 | 0.00 | 0.00 | 54 | 1012.8 |
| 20260503193651 | 74 | 97 | 0.0 | 0.0 | 0.00 | 0.00 | 0.00 | 53 | 1012.9 |
| 20260503193150 | 73 | 99 | 0.0 | 0.0 | 0.00 | 0.00 | 0.00 | 54 | 1013.0 |
| 20260503192913 | 72 | 98 | 0.0 | 0.0 | 0.00 | 0.00 | 0.00 | 55 | 1013.1 |
| 20260503192151 | 71 | 97 | 0.0 | 0.0 | 0.00 | 0.00 | 0.00 | 56 | 1013.1 |
| 20260503191651 | 71 | 98 | 0.0 | 0.9 | 0.00 | 0.00 | 0.00 | 55 | 1013.2 |
| 20260503191148 | 71 | 99 | 0.0 | 0.9 | 0.00 | 0.00 | 0.00 | 54 | 1013.1 |
| 20260503190908 | 71 | 98 | 0.0 | 0.9 | 0.00 | 0.00 | 0.00 | 54 | 1013.2 |
| 20260503190149 | 71 | 97 | 0.0 | 0.9 | 0.00 | 0.00 | 0.00 | 55 | 1013.2 |
| 20260503185650 | 71 | 98 | 0.0 | 1.7 | 0.00 | 0.00 | 0.00 | 54 | 1013.2 |
| 20260503185149 | 70 | 98 | 0.0 | 1.7 | 0.00 | 0.00 | 0.00 | 56 | 1013.3 |
| 20260503184909 | 70 | 97 | 0.0 | 0.9 | 0.00 | 0.00 | 0.00 | 55 | 1013.3 |
| 20260503184149 | 70 | 97 | 0.0 | 0.9 | 0.00 | 0.00 | 0.00 | 57 | 1013.3 |
| 20260503183648 | 69 | 98 | 0.0 | 0.9 | 0.00 | 0.00 | 0.00 | 56 | 1013.4 |
| 20260503183149 | 69 | 97 | 0.0 | 0.9 | 0.00 | 0.00 | 0.00 | 57 | 1013.5 |
| 20260503182648 | 69 | 98 | 0.0 | 0.9 | 0.00 | 0.00 | 0.00 | 56 | 1013.5 |
| 20260503182148 | 68 | 97 | 0.0 | 0.9 | 0.00 | 0.00 | 0.00 | 56 | 1013.5 |
| 20260503181648 | 68 | 83 | 0.0 | 0.0 | 0.00 | 0.00 | 0.00 | 54 | 1013.6 |
| 20260503181148 | 67 | 84 | 0.0 | 0.9 | 0.00 | 0.00 | 0.00 | 56 | 1013.6 |
| 20260503180917 | 66 | 83 | 0.0 | 0.9 | 0.00 | 0.00 | 0.00 | 56 | 1013.6 |
| 20260503180148 | 66 | 84 | 0.0 | 0.9 | 0.00 | 0.00 | 0.00 | 57 | 1013.6 |
| 20260503175649 | 65 | 83 | 0.0 | 0.0 | 0.00 | 0.00 | 0.00 | 49 | 1013.7 |
| 20260503175408 | 65 | 83 | 0.0 | 0.0 | 0.00 | 0.00 | 0.00 | 46 | 1013.7 |
| 20260503174912 | 65 | 84 | 0.0 | 0.9 | 0.00 | 0.00 | 0.00 | 43 | 1013.8 |
| 20260503174146 | 64 | 83 | 0.0 | 0.9 | 0.00 | 0.00 | 0.00 | 42 | 1013.9 |
| 20260503173904 | 64 | 81 | 0.0 | 0.0 | 0.00 | 0.00 | 0.00 | 33 | 1013.8 |
| 20260503173146 | 63 | 82 | 0.0 | 0.0 | 0.00 | 0.00 | 0.00 | 27 | 1013.9 |
| 20260503172908 | 63 | 82 | 0.0 | 0.0 | 0.00 | 0.00 | 0.00 | 23 | 1013.9 |
| 20260503172146 | 63 | 82 | 0.0 | 0.0 | 0.00 | 0.00 | 0.00 | 26 | 1013.9 |
| 20260503171647 | 62 | 81 | 0.0 | 2.6 | 0.00 | 0.00 | 0.00 | 21 | 1014.0 |
| 20260503171147 | 62 | 82 | 0.9 | 2.6 | 0.00 | 0.00 | 0.00 | 28 | 1014.0 |
| 20260503170647 | 62 | 85 | 0.0 | 2.6 | 0.00 | 0.00 | 0.00 | 10 | 1014.1 |
| 20260503170147 | 62 | 33 | 0.0 | 1.7 | 0.00 | 0.00 | 0.00 | 29 | 1014.0 |
| 20260503160144 | 60 | 32 | 0.0 | 0.0 | 0.00 | 0.00 | 0.00 | 22 | 1014.4 |
| 20260503150643 | 58 | 31 | 0.0 | 0.0 | 0.00 | 0.00 | 0.00 | 5 | 1014.5 |
| 20260503150142 | 58 | 31 | 0.0 | 0.0 | 0.00 | 0.00 | 0.00 | 1 | 1014.5 |
| 20260503140140 | 57 | 30 | 0.0 | 0.0 | 0.00 | 0.00 | 0.00 | 100 | 1014.3 |
| 20260503131139 | 54 | 30 | 0.0 | 0.0 | 0.00 | 0.00 | 0.00 | 100 | 1013.9 |
| 20260503130640 | 54 | 32 | 0.0 | 0.0 | 0.00 | 0.00 | 0.00 | 100 | 1014.0 |
| 20260503130140 | 54 | 31 | 0.0 | 0.0 | 0.00 | 0.00 | 0.00 | 100 | 1014.0 |
| 20260503120136 | 56 | 31 | 0.0 | 0.0 | 0.00 | 0.00 | 0.00 | 100 | 1014.3 |
| 20260503110635 | 56 | 30 | 0.0 | 0.0 | 0.00 | 0.00 | 0.00 | 100 | 1014.4 |
| 20260503110135 | 56 | 30 | 0.0 | 0.0 | 0.00 | 0.00 | 0.00 | 100 | 1014.4 |
| 20260503100134 | 58 | 31 | 0.0 | 0.0 | 0.00 | 0.00 | 0.00 | 100 | 1014.5 |
| 20260503090131 | 59 | 30 | 0.0 | 0.0 | 0.00 | 0.00 | 0.00 | 100 | 1014.5 |
| 20260503081632 | 60 | 30 | 0.0 | 0.0 | 0.00 | 0.00 | 0.00 | 30 | 1014.5 |
| 20260503081132 | 60 | 30 | 0.0 | 0.0 | 0.00 | 0.00 | 0.00 | 33 | 1014.5 |
| 20260503080630 | 60 | 31 | 0.0 | 0.0 | 0.00 | 0.00 | 0.00 | 37 | 1014.5 |
| 20260503080130 | 61 | 29 | 0.0 | 0.0 | 0.00 | 0.00 | 0.00 | 38 | 1014.5 |
| 20260503072850 | 62 | 31 | 0.0 | 0.0 | 0.00 | 0.00 | 0.00 | 50 | 1014.3 |
| 20260503072356 | 62 | 31 | 0.0 | 0.0 | 0.00 | 0.00 | 0.00 | 45 | 1014.3 |
| 20260503071848 | 62 | 30 | 0.0 | 0.0 | 0.00 | 0.00 | 0.00 | 50 | 1014.2 |
| 20260503071129 | 62 | 29 | 0.0 | 0.0 | 0.00 | 0.00 | 0.00 | 51 | 1014.2 |
| 20260503070629 | 63 | 30 | 0.0 | 0.0 | 0.00 | 0.00 | 0.00 | 49 | 1014.2 |
| 20260503070130 | 63 | 30 | 0.0 | 0.0 | 0.00 | 0.00 | 0.00 | 50 | 1014.3 |
| 20260503054349 | 67 | 30 | 0.0 | 0.0 | 0.00 | 0.00 | 0.00 | 51 | 1013.6 |
| 20260503053628 | 66 | 31 | 0.0 | 0.0 | 0.00 | 0.00 | 0.00 | 51 | 1013.5 |
| 20260503053128 | 66 | 30 | 0.0 | 0.0 | 0.00 | 0.00 | 0.00 | 51 | 1013.5 |
| 20260503052628 | 66 | 30 | 0.0 | 0.0 | 0.00 | 0.00 | 0.00 | 53 | 1013.6 |
| 20260503052127 | 67 | 31 | 0.0 | 0.0 | 0.00 | 0.00 | 0.00 | 53 | 1013.6 |
| 20260503051847 | 67 | 30 | 0.0 | 0.9 | 0.00 | 0.00 | 0.00 | 53 | 1013.6 |
| 20260503051128 | 67 | 30 | 0.0 | 0.9 | 0.00 | 0.00 | 0.00 | 52 | 1013.6 |
| 20260503050628 | 67 | 30 | 0.0 | 0.0 | 0.00 | 0.00 | 0.00 | 53 | 1013.6 |
| 20260503050345 | 67 | 30 | 0.0 | 0.0 | 0.00 | 0.00 | 0.00 | 53 | 1013.5 |
| 20260503045627 | 67 | 30 | 0.0 | 0.0 | 0.00 | 0.00 | 0.00 | 53 | 1013.5 |
| 20260503045344 | 67 | 30 | 0.0 | 0.0 | 0.00 | 0.00 | 0.00 | 52 | 1013.4 |
| 20260503044625 | 67 | 30 | 0.0 | 0.0 | 0.00 | 0.00 | 0.00 | 53 | 1013.4 |
| 20260503044124 | 67 | 31 | 0.0 | 0.0 | 0.00 | 0.00 | 0.00 | 54 | 1013.4 |
| 20260503043849 | 68 | 31 | 0.0 | 0.0 | 0.00 | 0.00 | 0.00 | 53 | 1013.3 |
| 20260503043122 | 68 | 30 | 0.0 | 0.0 | 0.00 | 0.00 | 0.00 | 53 | 1013.3 |
| 20260503042622 | 68 | 30 | 0.0 | 0.0 | 0.00 | 0.00 | 0.00 | 53 | 1013.2 |
| 20260503042123 | 68 | 31 | 0.0 | 0.0 | 0.00 | 0.00 | 0.00 | 52 | 1013.2 |
| 20260503041622 | 69 | 31 | 0.0 | 0.9 | 0.00 | 0.00 | 0.00 | 52 | 1013.2 |
| 20260503041122 | 69 | 31 | 0.0 | 0.9 | 0.00 | 0.00 | 0.00 | 52 | 1013.1 |
| 20260503040622 | 69 | 30 | 0.0 | 0.0 | 0.00 | 0.00 | 0.00 | 48 | 1013.0 |
| 20260503040122 | 70 | 30 | 0.0 | 0.0 | 0.00 | 0.00 | 0.00 | 48 | 1012.9 |
| 20260503035846 | 70 | 30 | 0.0 | 0.0 | 0.00 | 0.00 | 0.00 | 47 | 1012.8 |
| 20260503035122 | 70 | 31 | 0.0 | 0.0 | 0.00 | 0.00 | 0.00 | 48 | 1012.8 |
| 20260503034622 | 71 | 31 | 0.0 | 0.0 | 0.00 | 0.00 | 0.00 | 47 | 1012.7 |
| 20260503034346 | 71 | 31 | 0.0 | 1.7 | 0.00 | 0.00 | 0.00 | 49 | 1012.7 |
| 20260503033622 | 72 | 30 | 0.0 | 2.6 | 0.00 | 0.00 | 0.00 | 47 | 1012.6 |
| 20260503033120 | 72 | 31 | 0.0 | 2.6 | 0.00 | 0.00 | 0.00 | 48 | 1012.5 |
| 20260503032620 | 73 | 31 | 0.0 | 2.6 | 0.00 | 0.00 | 0.00 | 47 | 1012.5 |
| 20260503032121 | 73 | 31 | 0.9 | 2.6 | 0.00 | 0.00 | 0.00 | 44 | 1012.5 |
| 20260503031620 | 74 | 31 | 1.7 | 3.5 | 0.00 | 0.00 | 0.00 | 43 | 1012.4 |
| 20260503031341 | 74 | 24 | 1.7 | 3.5 | 0.00 | 0.00 | 0.00 | 43 | 1012.3 |
| 20260503030622 | 74 | 29 | 2.6 | 4.3 | 0.00 | 0.00 | 0.00 | 43 | 1012.2 |
| 20260503030121 | 74 | 26 | 2.6 | 4.3 | 0.00 | 0.00 | 0.00 | 43 | 1012.3 |
| 20260503025618 | 74 | 23 | 2.6 | 3.5 | 0.00 | 0.00 | 0.00 | 44 | 1012.2 |
| 20260503025118 | 74 | 22 | 2.6 | 4.3 | 0.00 | 0.00 | 0.00 | 44 | 1012.1 |
| 20260503024845 | 74 | 26 | 3.5 | 4.3 | 0.00 | 0.00 | 0.00 | 46 | 1012.1 |
| 20260503024118 | 74 | 30 | 3.5 | 6.1 | 0.00 | 0.00 | 0.00 | 46 | 1012.1 |
| 20260503023618 | 74 | 27 | 4.3 | 6.1 | 0.00 | 0.00 | 0.00 | 44 | 1012.1 |
| 20260503023119 | 74 | 29 | 4.3 | 6.1 | 0.00 | 0.00 | 0.00 | 45 | 1012.1 |
| 20260503022618 | 75 | 31 | 3.5 | 6.1 | 0.00 | 0.00 | 0.00 | 45 | 1012.0 |
| 20260503022118 | 75 | 34 | 3.5 | 6.1 | 0.00 | 0.00 | 0.00 | 45 | 1012.1 |
| 20260503021618 | 75 | 33 | 4.3 | 6.1 | 0.00 | 0.00 | 0.00 | 45 | 1012.1 |
| 20260503021118 | 75 | 36 | 3.5 | 6.1 | 0.00 | 0.00 | 0.00 | 43 | 1012.1 |
| 20260503020618 | 75 | 35 | 3.5 | 7.0 | 0.00 | 0.00 | 0.00 | 44 | 1012.1 |
| 20260503020118 | 75 | 33 | 3.5 | 7.0 | 0.00 | 0.00 | 0.00 | 43 | 1012.1 |
| 20260503015616 | 75 | 36 | 3.5 | 5.2 | 0.00 | 0.00 | 0.00 | 44 | 1012.2 |
| 20260503015117 | 75 | 38 | 3.5 | 4.3 | 0.00 | 0.00 | 0.00 | 44 | 1012.2 |
| 20260503014617 | 75 | 41 | 3.5 | 5.2 | 0.00 | 0.00 | 0.00 | 44 | 1012.2 |
| 20260503014117 | 76 | 35 | 3.5 | 5.2 | 0.00 | 0.00 | 0.00 | 43 | 1012.2 |
| 20260503013617 | 76 | 48 | 3.5 | 5.2 | 0.00 | 0.00 | 0.00 | 45 | 1012.3 |
| 20260503013341 | 76 | 38 | 2.6 | 5.2 | 0.00 | 0.00 | 0.00 | 42 | 1012.3 |
| 20260503012617 | 76 | 33 | 3.5 | 6.1 | 0.00 | 0.00 | 0.00 | 42 | 1012.3 |
| 20260503012117 | 76 | 35 | 3.5 | 6.1 | 0.00 | 0.00 | 0.00 | 43 | 1012.3 |
| 20260503011618 | 76 | 33 | 3.5 | 5.2 | 0.00 | 0.00 | 0.00 | 43 | 1012.3 |
| 20260503011556 | 77 | 39 | 3.5 | 7.0 | 0.00 | 0.00 | 0.00 | 42 | 1012.3 |
| 20260503010617 | 77 | 41 | 3.5 | 7.0 | 0.00 | 0.00 | 0.00 | 41 | 1012.3 |
| 20260503010117 | 77 | 39 | 3.5 | 6.1 | 0.00 | 0.00 | 0.00 | 43 | 1012.3 |
| 20260503005618 | 77 | 39 | 3.5 | 6.1 | 0.00 | 0.00 | 0.00 | 42 | 1012.3 |
| 20260503005118 | 76 | 48 | 3.5 | 6.1 | 0.00 | 0.00 | 0.00 | 43 | 1012.4 |
| 20260503004613 | 76 | 37 | 3.5 | 7.0 | 0.00 | 0.00 | 0.00 | 44 | 1012.4 |
| 20260503004114 | 76 | 44 | 3.5 | 7.0 | 0.00 | 0.00 | 0.00 | 44 | 1012.4 |
| 20260503003615 | 76 | 27 | 3.5 | 5.2 | 0.00 | 0.00 | 0.00 | 43 | 1012.4 |
| 20260503003339 | 76 | 45 | 3.5 | 7.0 | 0.00 | 0.00 | 0.00 | 45 | 1012.5 |